Location: Honea-Egypt Observatory
(30.2769°N, 95.5936°W)
Time: 10:49:26
(UTC-06:00)

ISS - Visible Passes

Search period start: 02 December 2020 00:00
Search period end: 12 December 2020 00:00
Orbit: 418 x 420 km, 51.6° (Epoch: 02 December)

Date Brightness Start Highest point End Pass type
(mag) Time Alt. Az. Time Alt. Az. Time Alt. Az.
06 Dec -1.1 19:09:30 10° NNW 19:09:59 13° NNW 19:09:59 13° NNW visible
07 Dec -2.5 18:22:16 10° NNW 18:25:00 23° NE 18:25:14 22° NE visible
08 Dec -2.7 19:10:58 10° NW 19:13:57 45° WSW 19:13:57 45° WSW visible
09 Dec -3.9 18:23:16 10° NW 18:26:38 82° NE 18:29:58 10° SE visible
10 Dec -0.4 19:14:03 10° W 19:15:27 12° SW 19:16:52 10° SSW visible
11 Dec -1.1 18:25:13 10° WNW 18:27:57 23° SW 18:30:41 10° S visible
